Location: Góry Miechowskie
(50.3599°N, 20.1803°E)
Time: 23:10:54
(UTC+00:00)

S-56A Canister/Altair - Pass Details

Date: 14 September 2024
Orbit: 636 x 2487 km, 38.9° (Epoch: 09 October)

Event Time Altitude Azimuth Distance (km) Brightness Sun altitude
Rises 20:04:33 0° 255° (WSW) 3,750 11.4 -27.7°
Reaches altitude 10° 20:07:01 10° 247° (WSW) 3,004 10.7 -28.0°
Enters shadow 20:13:03 38° 194° (SSW) 2,036 9.3 -28.7°
Maximum altitude 20:13:53 39° 181° (S) 2,068 - -28.7°
Drops below altitude 10° 20:23:48 10° 119° (ESE) 4,337 - -29.8°
Sets 20:28:09 0° 113° (ESE) 5,604 - -30.2°
